| time (UTC) | temp F | wind direction | speed MPH | gust MPH | rain 1hr in | rain 24hr in | rain mn in | humidity % | barometer mb |
| 20260505113024 | 36 | 44 | 1.0 | 4.0 | 0.00 | 0.00 | 0.00 | 70 | 1018.4 |
| 20260505111530 | 36 | 25 | 1.0 | 4.0 | 0.00 | 0.00 | 0.00 | 69 | 1018.3 |
| 20260505101511 | 38 | 59 | 1.0 | 8.0 | 0.00 | 0.00 | 0.00 | 62 | 1017.9 |
| 20260505100008 | 39 | 180 | 1.0 | 5.0 | 0.00 | 0.00 | 0.00 | 59 | 1017.9 |
| 20260505094506 | 40 | 49 | 1.0 | 5.0 | 0.00 | 0.00 | 0.00 | 57 | 1017.7 |
| 20260505093005 | 40 | 180 | 0.0 | 6.0 | 0.00 | 0.00 | 0.00 | 56 | 1017.6 |
| 20260505091504 | 40 | 35 | 1.0 | 3.0 | 0.00 | 0.00 | 0.00 | 55 | 1017.6 |
| 20260505090003 | 40 | 20 | 0.0 | 5.0 | 0.00 | 0.00 | 0.00 | 54 | 1017.6 |
| 20260505084502 | 41 | 180 | 0.0 | 3.0 | 0.00 | 0.00 | 0.00 | 54 | 1017.5 |
| 20260505083002 | 41 | 180 | 1.0 | 3.0 | 0.00 | 0.00 | 0.00 | 54 | 1017.5 |
| 20260505081502 | 41 | 180 | 2.0 | 5.0 | 0.00 | 0.00 | 0.00 | 55 | 1017.3 |
| 20260505080004 | 41 | 180 | 3.0 | 8.0 | 0.00 | 0.00 | 0.00 | 55 | 1017.3 |
| 20260505074600 | 41 | 180 | 3.0 | 9.0 | 0.00 | 0.00 | 0.00 | 56 | 1017.3 |
| 20260505073001 | 41 | 180 | 4.0 | 9.0 | 0.00 | 0.00 | 0.00 | 57 | 1017.2 |
| 20260505071615 | 41 | 180 | 2.0 | 13.0 | 0.00 | 0.00 | 0.00 | 57 | 1017.1 |
| 20260505064603 | 39 | 180 | 2.0 | 8.0 | 0.00 | 0.00 | 0.00 | 55 | 1017.4 |
| 20260505063055 | 39 | 343 | 0.0 | 2.0 | 0.00 | 0.00 | 0.00 | 52 | 1017.3 |
| 20260505061557 | 39 | 36 | 0.0 | 2.0 | 0.00 | 0.00 | 0.00 | 51 | 1017.1 |
| 20260505060059 | 39 | 47 | 0.0 | 1.0 | 0.00 | 0.00 | 0.00 | 50 | 1017.0 |
| 20260505054545 | 40 | 38 | 0.0 | 0.0 | 0.00 | 0.00 | 0.00 | 50 | 1016.7 |
| 20260505053044 | 40 | 38 | 0.0 | 1.0 | 0.00 | 0.00 | 0.00 | 50 | 1016.5 |
| 20260505051542 | 40 | 38 | 0.0 | 0.0 | 0.00 | 0.00 | 0.00 | 50 | 1016.4 |
| 20260505041545 | 42 | 38 | 0.0 | 1.0 | 0.00 | 0.00 | 0.00 | 46 | 1016.3 |
| 20260505040034 | 42 | 47 | 0.0 | 2.0 | 0.00 | 0.00 | 0.00 | 46 | 1016.1 |
| 20260505034529 | 43 | 42 | 0.0 | 3.0 | 0.00 | 0.00 | 0.00 | 45 | 1015.7 |
| 20260505033026 | 43 | 55 | 0.0 | 2.0 | 0.00 | 0.00 | 0.00 | 44 | 1015.3 |
| 20260505031524 | 44 | 49 | 1.0 | 3.0 | 0.00 | 0.00 | 0.00 | 43 | 1015.1 |
| 20260505030021 | 45 | 54 | 0.0 | 4.0 | 0.00 | 0.00 | 0.00 | 41 | 1015.0 |
| 20260505024518 | 46 | 52 | 0.0 | 4.0 | 0.00 | 0.00 | 0.00 | 39 | 1014.6 |
| 20260505023014 | 47 | 78 | 1.0 | 3.0 | 0.00 | 0.00 | 0.00 | 36 | 1014.4 |
| 20260505021510 | 49 | 347 | 2.0 | 11.0 | 0.00 | 0.00 | 0.00 | 32 | 1014.1 |
| 20260505020006 | 50 | 93 | 2.0 | 9.0 | 0.00 | 0.00 | 0.00 | 29 | 1013.9 |
| 20260505014503 | 52 | 40 | 3.0 | 10.0 | 0.00 | 0.00 | 0.00 | 26 | 1013.6 |
| 20260505013059 | 53 | 103 | 3.0 | 10.0 | 0.00 | 0.00 | 0.00 | 25 | 1013.5 |
| 20260505011558 | 55 | 88 | 3.0 | 12.0 | 0.00 | 0.00 | 0.00 | 23 | 1013.2 |
| 20260505010059 | 56 | 338 | 5.0 | 12.0 | 0.00 | 0.00 | 0.00 | 22 | 1013.1 |
| 20260505004552 | 56 | 326 | 5.0 | 15.0 | 0.00 | 0.00 | 0.00 | 21 | 1013.2 |
| 20260505003057 | 57 | 310 | 8.0 | 16.0 | 0.00 | 0.00 | 0.00 | 21 | 1013.0 |
| 20260505001550 | 58 | 358 | 9.0 | 18.0 | 0.00 | 0.00 | 0.00 | 21 | 1013.0 |
| 20260505000056 | 59 | 17 | 9.0 | 19.0 | 0.00 | 0.00 | 0.00 | 21 | 1013.0 |
| 20260504234548 | 59 | 6 | 5.0 | 17.0 | 0.00 | 0.00 | 0.00 | 21 | 1013.0 |
| 20260504233047 | 60 | 336 | 6.0 | 18.0 | 0.00 | 0.00 | 0.00 | 21 | 1013.0 |
| 20260504231544 | 60 | 2 | 8.0 | 16.0 | 0.00 | 0.00 | 0.00 | 21 | 1012.9 |
| 20260504230045 | 60 | 351 | 9.0 | 18.0 | 0.00 | 0.00 | 0.00 | 21 | 1012.7 |
| 20260504224543 | 60 | 360 | 9.0 | 18.0 | 0.00 | 0.00 | 0.00 | 22 | 1012.7 |
| 20260504223058 | 60 | 316 | 8.0 | 21.0 | 0.00 | 0.00 | 0.00 | 23 | 1012.7 |
| 20260504221543 | 61 | 333 | 10.0 | 19.0 | 0.00 | 0.00 | 0.00 | 24 | 1012.7 |
| 20260504220042 | 61 | 355 | 8.0 | 27.0 | 0.00 | 0.00 | 0.00 | 25 | 1012.8 |
| 20260504214540 | 60 | 37 | 10.0 | 20.0 | 0.00 | 0.00 | 0.00 | 27 | 1012.6 |
| 20260504213044 | 58 | 42 | 5.0 | 18.0 | 0.00 | 0.00 | 0.00 | 31 | 1012.9 |
| 20260504211606 | 56 | 7 | 10.0 | 18.0 | 0.00 | 0.00 | 0.00 | 30 | 1013.1 |
| 20260504210044 | 56 | 353 | 6.0 | 16.0 | 0.00 | 0.00 | 0.00 | 30 | 1013.0 |
| 20260504204538 | 57 | 336 | 10.0 | 23.0 | 0.00 | 0.00 | 0.00 | 30 | 1013.0 |
| 20260504203037 | 58 | 15 | 8.0 | 12.0 | 0.00 | 0.00 | 0.00 | 28 | 1012.8 |
| 20260504201536 | 60 | 22 | 7.0 | 16.0 | 0.00 | 0.00 | 0.00 | 27 | 1012.7 |
| 20260504200034 | 60 | 340 | 9.0 | 23.0 | 0.00 | 0.00 | 0.00 | 28 | 1012.6 |
| 20260504194533 | 61 | 8 | 9.0 | 20.0 | 0.00 | 0.00 | 0.00 | 28 | 1012.4 |
| 20260504193032 | 62 | 345 | 8.0 | 17.0 | 0.00 | 0.00 | 0.00 | 28 | 1012.4 |
| 20260504191528 | 57 | 332 | 8.0 | 14.0 | 0.00 | 0.00 | 0.00 | 31 | 1012.5 |
| 20260504190025 | 56 | 276 | 10.0 | 22.0 | 0.00 | 0.00 | 0.00 | 30 | 1012.4 |
| 20260504184531 | 56 | 347 | 7.0 | 21.0 | 0.00 | 0.00 | 0.00 | 33 | 1012.4 |
| 20260504183020 | 56 | 322 | 8.0 | 17.0 | 0.00 | 0.00 | 0.00 | 33 | 1012.4 |
| 20260504181519 | 57 | 349 | 9.0 | 20.0 | 0.00 | 0.00 | 0.00 | 32 | 1012.4 |
| 20260504180019 | 59 | 326 | 8.0 | 15.0 | 0.00 | 0.00 | 0.00 | 31 | 1012.5 |
| 20260504174519 | 57 | 341 | 8.0 | 17.0 | 0.00 | 0.00 | 0.00 | 32 | 1012.5 |
| 20260504173019 | 58 | 310 | 7.0 | 21.0 | 0.00 | 0.00 | 0.00 | 32 | 1012.5 |
| 20260504171521 | 58 | 324 | 8.0 | 13.0 | 0.00 | 0.00 | 0.00 | 32 | 1012.5 |
| 20260504130105 | 44 | 315 | 6.0 | 10.0 | 0.00 | 0.00 | 0.00 | 67 | 1012.7 |